Regional Weather Roundup
Issued by NWS

Home | Current Version | Previous Version | Graphics & Text | Print | Product List | Glossary On
Versions: 1 2 3 4 5 6 7 8 9 10 11 12 13 14 15 16 17 18 19 20 21 22 23 24 25 26 27 28 29 30 31 32 33 34 35 36 37 38 39 40 41 42 43 44 45 46 47 48 49 50
000
ASUS43 KFSD 221002
RWRSD

WEATHER ROUNDUP FOR SOUTH DAKOTA
NATIONAL WEATHER SERVICE SIOUX FALLS SD
500 AM CDT FRI MAY 22 2015

NOTE: "FAIR" INDICATES FEW OR NO CLOUDS BELOW 12,000 FEET WITH NO
SIGNIFICANT WEATHER AND/OR OBSTRUCTIONS TO VISIBILITY.


SDZ001>005-009-010-012>017-221100-
NORTHWEST AND NORTH CENTRAL SOUTH DAKOTA

CITY           SKY/WX    TMP DP  RH WIND       PRES   REMARKS
BUFFALO          N/A     37  29  72 SW6       30.05R
FAITH            N/A     50  29  44 SE13      30.13R
MOBRIDGE       CLEAR     45  39  79 CALM      30.13S
$$

SDZ012>016-024>037-041>051-057-063-072>074-221100-
SOUTHWEST AND SOUTH CENTRAL SOUTH DAKOTA

CITY           SKY/WX    TMP DP  RH WIND       PRES   REMARKS
RAPID CTY ARPT CLOUDY    49  45  86 SE5       30.10S
PIERRE         CLEAR     41  35  79 E5        30.14R
CUSTER         CLOUDY    44  40  85 VRB5      30.13S
ELLSWORTH AFB  CLOUDY    50  45  85 SE8       30.10S
PHILIP         CLEAR     45  36  70 CALM      30.13R
PINE RIDGE     CLOUDY    52  42  69 SE13      30.11F
WINNER         FAIR      50  35  56 SW8       30.16S
$$

SDZ004>011-016>023-039-040-221100-
NORTHEAST SOUTH DAKOTA

CITY           SKY/WX    TMP DP  RH WIND       PRES   REMARKS
ABERDEEN       CLEAR     44  39  82 N3        30.17R
WATERTOWN      CLEAR     44  38  79 CALM      30.18R
BROOKINGS      CLEAR     43  37  81 CALM      30.21R
$$

SDZ017-020-022-023-036>040-048>070-221100-
SOUTHEAST SOUTH DAKOTA

CITY           SKY/WX    TMP DP  RH WIND       PRES   REMARKS
SIOUX FALLS    CLEAR     43  40  89 CALM      30.18R
HURON          CLEAR     46  41  82 SE3       30.16S
CHAMBERLAIN    CLEAR     45  37  74 CALM      30.17R
MITCHELL       CLEAR     44  40  85 E5        30.17S
YANKTON        CLEAR     46  37  71 CALM      30.18R
$$

ABBREVIATIONS USED IN REMARKS
   TC - TEMPERATURE IN CELSIUS
  WCI - WIND CHILL INDEX
   HX - HEAT INDEX
  VSB - VISIBILITY



USA.gov is the U.S. government's official web portal to all federal, state and local government web resources and services.